Location: A�t �Alizem
(31.2076°N, 8.7872°W)
Time: 12:05:55
(UTC+00:00)

Hubble Space Telescope - Pass Details

Date: 07 October 2021
Orbit: 535 x 539 km, 28.5° (Epoch: 26 October)

Event Time Altitude Azimuth Distance (km) Brightness Sun altitude
Exits shadow 05:27:43 - 211° (SSW) 1,864 3.2 -14.7°
Reaches altitude 10° 05:28:00 10° 208° (SSW) 1,778 3.1 -14.6°
Maximum altitude 05:31:07 21° 159° (SSE) 1,231 2.8 -14.0°
Drops below altitude 10° 05:34:15 10° 109° (ESE) 1,780 4.6 -13.3°
Sets 05:36:55 0° 93° (E) 2,672 6.4 -12.7°
